Regional Weather Roundup
Issued by NWS Jackson, KY

Home | Current Version | Previous Version | Text Only | Print | Product List | Glossary Off
Versions: 1 2 3 4 5 6 7 8 9 10 11 12 13 14 15 16 17 18 19 20 21 22 23 24 25 26 27 28

000
ASUS43 KJKL 271610
RWRJKL

EAST KENTUCKY HOURLY WEATHER ROUNDUP
NATIONAL WEATHER SERVICE JACKSON KY
1200 PM EDT THU APR 27 2017

NOTE: "FAIR" INDICATES FEW OR NO CLOUDS BELOW 12,000 FEET WITH
NO SIGNIFICANT WEATHER AND/OR OBSTRUCTIONS TO VISIBILITY.

* THESE REPORTS ARE NOT UNDER NWS QUALITY CONTROL AND MAY NOT
  REPORT WEATHER SUCH AS PRECIPITATION AND FOG.

KYZ079-080-083-085-087-088-110-112-115-119-120-271700
...EASTERN KENTUCKY...

CITY           SKY/WX    TMP DP  RH WIND       PRES   REMARKS
JACKSON        CLOUDY    66  58  75 VRB3      29.73R
LONDON         LGT RAIN  63  59  87 S8        29.75R FOG
SOMERSET*      CLOUDY    68  57  68 W12G21    29.74R
MONTICELLO*    PTSUNNY   71  60  68 SW20      29.75R
WILLIAMSBURG*  CLOUDY    63  63 100 S3        29.75R
MIDDLESBORO*   LGT RAIN  62  61  96 S3        29.78S
HARLAN APT*    CLOUDY    61  55  82 CALM      29.79R
PIKE CO APT*   LGT RAIN  64  59  83 S7        29.75R
BIG SANDY APT* LGT RAIN  66  60  82 S6        29.73R
MOREHEAD APT*  CLOUDY    73  57  56 SW17G26   29.70R
$$

KYZ035-036-041-042-044-050-067-078-099-271700
...CENTRAL KENTUCKY...

CITY           SKY/WX    TMP DP  RH WIND       PRES   REMARKS
MT STERLING*   PTSUNNY   70  59  68 W20G28    29.70R
FLEMING/MASON* CLOUDY    71  59  66 SW23G29   29.67S
DANVILLE*      MOSUNNY   72  57  60 SW16G22   29.71S
LEXINGTON      PTSUNNY   69  57  65 SW16G28   29.68R
FRANKFORT      PTSUNNY   70  56  61 SW16G24   29.66R
LOUISVILLE     CLOUDY    64  56  75 W20       29.69R
LEBANON*       PTSUNNY   72  59  64 SW10      29.70R
GLASGOW*       PTSUNNY   67  57  70 W18G25    29.73R
BOWLING GREEN  PTSUNNY   62  55  77 W16G24    29.75R
$$

KYZ091>093-OHZ055-061-077-WVZ005-015-034-035-042-271700
...SOUTHERN OHIO/WEST VIRGINIA...

CITY           SKY/WX    TMP DP  RH WIND       PRES   REMARKS
COVINGTON      PTSUNNY   67  61  81 SW17G24   29.63S
COLUMBUS       CLOUDY    73  56  54 S17G23    29.61R
DAYTON         LGT RAIN  64  59  83 SW17G28   29.62R
WILMINGTON     LGT RAIN  64  59  83 W22G28    29.63R
HUNTINGTON     PTSUNNY   71  56  58 S9G20     29.68R
CHARLESTON     LGT RAIN  73  54  51 S6        29.70R
PINEVILLE*     CLOUDY    70  52  53 MISG      29.83R
BECKLEY        LGT RAIN  66  52  60 S13G21    29.80F
BLUEFIELD      CLOUDY    68  49  50 VRB7      29.84R
LOGAN CO APT*    N/A     68  54  60 S9        29.73S
$$

VAZ002-007-008-TNZ017-027-036-066-071-271700
...SOUTHWEST VIRGINIA/EAST TENNESSEE...

CITY           SKY/WX    TMP DP  RH WIND       PRES   REMARKS
WISE*          LGT RAIN  61  55  82 CALM      29.82F
JONESVILLE*    LGT RAIN  59  59 100 CALM      29.81R
ABINGDON*      CLOUDY    75  53  45 S5        29.81S
BRISTOL        CLOUDY    74  56  53 S8        29.78R
MORRISTOWN*    CLOUDY    63  61  94 CALM      29.76R FOG
SEVIERVILLE*   CLOUDY    63  61  94 W3        29.75R
KNOXVILLE      CLOUDY    64  61  90 NW3       29.75R FOG
LAFOLLETTE*    PTSUNNY   63  61  94 CALM      29.79S
OAK RIDGE      CLOUDY    64  62  93 CALM      29.77S FOG
CROSSVILLE     CLOUDY    62  57  83 W12       29.80R
NASHVILLE      CLOUDY    65  55  70 W10G18    29.78R
$$

...KEY TO REMARKS...
VSB - VISIBILITY IN MILES
WCI - WIND CHILL INDEX
HX  - HEAT INDEX

$$




USA.gov is the U.S. government's official web portal to all federal, state and local government web resources and services.